Location: Amsterdam
(30.7274°N, 84.4357°W)
Time: 20:53:09
(UTC+00:00)

Explorer 11/Cluster Stage 4 - Pass Details

Date: 18 February 2026
Orbit: 463 x 1176 km, 28.8° (Epoch: 5 March)

Event Time Altitude Azimuth Distance (km) Brightness Sun altitude
Rises 16:18:05 0° 215° (SW) 3,228 10.0 42.2°
Reaches altitude 10° 16:21:43 10° 193° (SSW) 2,135 9.5 42.6°
Maximum altitude 16:24:31 15° 158° (SSE) 1,697 9.6 42.9°
Drops below altitude 10° 16:27:04 10° 122° (ESE) 1,904 9.4 43.2°
Sets 16:30:00 0° 98° (E) 2,687 9.7 43.5°
